CW9114 Weather Reports


Display with metric or nautical units.
time (UTC)temp
F
wind
direction
speed
MPH
gust
MPH
rain 1hr
in
rain 24hr
in
rain mn
in
humidity
%
barometer
mb
20260508114517 31 360 0.0 2.0 0.00 0.02 0.00 94 1007.8
20260508113022 30 360 0.0 0.0 0.00 0.02 0.00 93 1007.9
20260508111505 30 360 0.0 0.0 0.00 0.02 0.00 93 1007.8
20260508110007 31 360 0.0 1.0 0.00 0.02 0.00 94 1007.7
20260508104513 31 360 0.0 1.0 0.00 0.02 0.00 94 1007.7
20260508103022 30 360 0.0 4.0 0.00 0.02 0.00 94 1007.8
20260508101523 29 360 0.0 3.0 0.00 0.02 0.00 94 1007.9
20260508100004 29 360 0.0 1.0 0.00 0.02 0.00 93 1008.0
20260508094509 29 360 0.0 2.0 0.00 0.02 0.00 93 1008.0
20260508093016 29 360 0.0 1.0 0.00 0.02 0.00 93 1008.0
20260508091525 29 360 0.0 1.0 0.00 0.02 0.00 93 1008.1
20260508090022 29 360 0.0 1.0 0.00 0.02 0.00 93 1008.2
20260508083009 30 360 0.0 1.0 0.00 0.02 0.00 93 1008.1
20260508081517 31 360 0.0 2.0 0.00 0.02 0.00 93 1008.1
20260508080018 31 360 0.0 3.0 0.00 0.02 0.00 94 1008.1
20260508074522 31 360 0.0 4.0 0.00 0.02 0.00 94 1008.2
20260508073032 30 360 0.0 3.0 0.00 0.02 0.00 94 1008.1
20260508071514 30 360 0.0 0.0 0.00 0.02 0.00 93 1008.3
20260508070013 30 360 0.0 0.0 0.00 0.02 0.00 93 1008.4
20260508064525 30 360 0.0 0.0 0.00 0.02 0.00 92 1008.6
20260508063024 30 360 0.0 0.0 0.00 0.02 0.00 92 1008.7
20260508061526 31 360 0.0 0.0 0.00 0.02 0.00 92 1009.0
20260508060011 31 360 0.0 0.0 0.00 0.02 0.00 92 1009.1
20260508054517 32 360 0.0 0.0 0.00 0.02 0.00 91 1009.1
20260508053022 32 360 0.0 0.0 0.00 0.02 0.00 91 1009.4
20260508051524 33 360 0.0 0.0 0.00 0.02 0.00 91 1009.5
20260508050035 33 360 0.0 0.0 0.00 0.02 0.00 91 1009.6
20260508044514 34 360 0.0 2.0 0.00 0.02 0.00 90 1009.6
20260508043019 35 360 0.0 3.0 0.00 0.02 0.00 89 1009.7
20260508041522 36 360 1.0 7.0 0.00 0.02 0.00 88 1009.6
20260508040034 36 360 1.0 9.0 0.00 0.02 0.00 89 1009.4
20260508034527 36 360 0.0 4.0 0.00 0.02 0.02 89 1009.5
20260508033016 36 360 1.0 6.0 0.00 0.02 0.02 89 1009.5
20260508031518 36 360 1.0 5.0 0.00 0.02 0.02 89 1009.6
20260508030026 36 360 0.0 3.0 0.00 0.02 0.02 89 1009.5
20260508024506 36 360 1.0 3.0 0.00 0.02 0.02 89 1009.7
20260508023008 37 360 1.0 4.0 0.00 0.02 0.02 88 1009.8
20260508021514 37 360 0.0 4.0 0.01 0.02 0.02 86 1009.9
20260508020028 38 360 1.0 6.0 0.01 0.02 0.02 85 1009.9
20260508014524 39 360 2.0 8.0 0.01 0.02 0.02 84 1010.3
20260508013007 40 360 2.0 6.0 0.01 0.02 0.02 81 1010.4
20260508011513 42 360 5.0 13.0 0.00 0.01 0.01 73 1010.1
20260508010017 43 360 3.0 9.0 0.00 0.01 0.01 61 1009.9
20260508004520 44 319 0.0 6.0 0.00 0.01 0.01 55 1009.2
20260508003026 44 360 0.0 2.0 0.00 0.01 0.01 56 1009.1
20260508001519 44 360 0.0 3.0 0.00 0.01 0.01 53 1008.8
20260508000016 44 184 0.0 2.0 0.00 0.01 0.01 53 1008.6
20260507234518 44 360 0.0 3.0 0.00 0.01 0.01 55 1008.6
20260507233024 45 360 0.0 2.0 0.00 0.01 0.01 53 1008.6
20260507231533 45 360 0.0 3.0 0.00 0.01 0.01 53 1008.7
20260507230009 45 75 1.0 3.0 0.00 0.01 0.01 50 1008.6
20260507224516 45 360 0.0 3.0 0.00 0.01 0.01 50 1008.7
20260507223020 45 155 0.0 3.0 0.00 0.01 0.01 50 1008.7
20260507221522 45 115 0.0 4.0 0.00 0.01 0.01 50 1008.9
20260507220038 46 132 0.0 3.0 0.00 0.01 0.01 50 1008.8
20260507214512 46 98 0.0 3.0 0.00 0.01 0.01 49 1008.8
20260507213016 46 102 1.0 4.0 0.00 0.01 0.01 50 1008.8
20260507211522 45 91 0.0 7.0 0.00 0.01 0.01 53 1008.8
20260507210027 45 30 1.0 3.0 0.00 0.01 0.01 51 1008.8
20260507204528 45 94 0.0 5.0 0.00 0.01 0.01 52 1009.1
20260507203014 45 13 1.0 4.0 0.00 0.01 0.01 50 1009.2
20260507201518 45 164 0.0 5.0 0.00 0.01 0.01 52 1009.2
20260507200025 44 41 1.0 5.0 0.00 0.01 0.01 51 1009.4
20260507194524 44 61 1.0 4.0 0.00 0.01 0.01 54 1009.5
20260507193031 46 72 1.0 4.0 0.00 0.01 0.01 53 1009.5
20260507191516 46 360 3.0 7.0 0.00 0.01 0.01 50 1009.4
20260507190018 46 75 1.0 6.0 0.00 0.01 0.01 49 1009.4
20260507184524 46 360 2.0 7.0 0.00 0.01 0.01 51 1009.5
20260507183025 47 49 2.0 5.0 0.00 0.01 0.01 50 1009.5
20260507181527 48 338 2.0 9.0 0.00 0.01 0.01 48 1009.4
20260507180017 48 317 2.0 7.0 0.00 0.01 0.01 47 1009.6
20260507174534 48 313 3.0 9.0 0.00 0.01 0.01 49 1009.6
20260507173027 46 317 1.0 7.0 0.01 0.01 0.01 57 1009.8
20260507171533 45 360 3.0 8.0 0.01 0.01 0.01 56 1010.1
20260507170040 44 360 2.0 7.0 0.01 0.01 0.01 66 1010.0
20260507164519 41 360 1.0 4.0 0.01 0.01 0.01 78 1010.2
20260507163023 41 360 0.0 9.0 0.00 0.00 0.00 75 1010.6
20260507161526 43 360 2.0 7.0 0.00 0.00 0.00 62 1010.6
20260507160027 44 360 2.0 7.0 0.00 0.00 0.00 60 1010.6
20260507154529 46 309 1.0 9.0 0.00 0.00 0.00 57 1010.5
20260507153022 44 255 1.0 5.0 0.00 0.00 0.00 63 1010.7
20260507151504 43 291 1.0 6.0 0.00 0.00 0.00 63 1010.7
20260507150008 42 290 2.0 7.0 0.00 0.00 0.00 65 1010.8
20260507144512 42 279 4.0 8.0 0.00 0.00 0.00 64 1010.9
20260507143016 42 262 1.0 8.0 0.00 0.00 0.00 62 1010.8
20260507141521 42 281 4.0 9.0 0.00 0.00 0.00 60 1010.8
20260507140003 42 28 2.0 9.0 0.00 0.00 0.00 60 1010.8
20260507134507 42 274 2.0 7.0 0.00 0.00 0.00 62 1010.8
20260507133015 41 203 0.0 8.0 0.00 0.00 0.00 65 1010.7
20260507131526 40 257 1.0 4.0 0.00 0.00 0.00 66 1010.7
20260507130023 40 256 0.0 5.0 0.00 0.00 0.00 68 1010.7
20260507124509 39 291 1.0 6.0 0.00 0.00 0.00 68 1010.8
20260507123008 39 276 0.0 3.0 0.00 0.00 0.00 70 1010.8
20260507121517 38 283 0.0 2.0 0.00 0.00 0.00 71 1010.9
20260507120035 38 257 0.0 1.0 0.00 0.00 0.00 71 1010.8